Temp
13 13 14 15 15 15 15 16 16 16 16 16 17 17 18 18 18 19 20 21 20 20 19 19 19 19 18 17 18 19 22 21 22 22 20 19 20 17 18 19 20 20 19 18 15
13 13 14 14 15 15 15 15 16 16 16 16 16 17 17 18 18 20 20 21 21 20 19 19 19 18 19 19 19 21 22 22 22 21 20 19 19 17 19 20 18 17 17 16 15
13 14 14 14 14 15 15 16 15 16 16 16 16 17 17 18 19 20 20 21 20 20 19 19 20 19 20 19 20 21 22 22 22 20 19 19 18 18 19 20 19 17 16 16 16
14 14 14 14 14 14 15 15 15 15 15 16 16 16 17 18 21 20 20 20 20 19 19 19 19 20 21 21 20 22 22 23 21 20 19 19 18 19 18 20 19 17 17 17 17
13 14 14 14 14 14 14 15 15 15 15 15 16 16 17 17 20 20 20 19 19 19 19 18 19 19 22 21 21 22 23 23 21 20 21 19 19 20 19 19 18 17 17 17 18
13 13 14 13 14 14 15 15 16 16 15 15 16 16 16 18 19 20 20 19 19 19 18 19 19 20 21 21 23 23 23 24 22 21 22 21 21 21 20 18 18 17 18 18 18
13 13 13 14 14 15 15 16 16 16 15 15 16 16 16 18 19 19 19 19 19 19 19 19 19 20 20 22 22 23 24 23 23 22 23 22 20 20 21 18 18 18 18 18 18
12 13 13 14 14 15 16 16 16 16 15 15 16 16 18 19 19 19 19 19 19 18 19 19 19 20 21 21 22 24 24 25 22 22 23 22 23 22 19 20 19 18 18 18 18
13 13 13 14 14 15 16 16 16 16 16 15 15 15 17 18 18 19 19 19 18 18 18 19 19 20 21 23 24 23 25 24 22 22 23 22 23 21 20 20 19 18 19 19 18
13 13 13 14 15 15 15 15 15 16 16 15 15 15 18 19 19 19 18 18 18 18 18 18 19 21 21 23 23 24 24 24 24 23 22 24 22 21 20 20 19 19 19 19 19
13 14 14 14 15 15 15 16 15 15 15 16 16 17 19 19 19 19 19 18 18 19 20 19 21 21 22 23 23 24 24 24 24 24 23 25 24 23 20 20 20 20 19 20 20
14 14 14 15 15 15 16 15 15 15 16 17 17 18 19 20 20 19 19 19 19 20 19 20 21 22 23 22 23 24 24 24 24 24 24 24 24 22 21 21 20 20 20 20 20
14 15 15 15 15 16 16 16 16 16 15 17 18 19 20 20 21 20 19 19 20 20 20 21 22 21 22 22 23 23 24 23 25 23 23 23 23 22 21 20 20 20 20 20 20
15 15 15 15 16 16 16 16 16 16 18 19 19 20 20 21 21 21 20 21 21 21 21 22 22 22 22 23 23 23 23 24 24 24 25 23 26 22 21 21 20 20 20 20 20
15 16 16 16 16 16 16 16 16 16 18 20 20 20 20 21 21 20 21 21 22 21 21 21 22 22 22 23 23 23 23 24 24 24 24 23 26 22 21 21 21 21 20 20 20
15 16 16 16 16 16 16 16 16 18 17 19 19 20 22 20 20 19 20 21 20 21 21 21 21 22 23 23 24 23 22 22 22 24 25 24 25 21 20 18 20 20 20 20 19
16 16 16 16 16 16 16 16 17 16 17 17 18 18 19 18 19 18 18 17 19 20 21 21 20 20 20 23 22 23 24 23 23 23 25 21 24 19 19 18 17 18 18 18 20
16 16 16 16 16 16 16 18 16 16 16 17 17 18 18 18 17 17 17 18 17 18 20 21 20 20 19 20 22 23 24 24 22 23 24 21 22 17 19 18 17 16 16 16 17
17 17 17 17 17 16 16 16 14 15 15 16 17 18 18 18 18 17 16 16 16 15 20 19 19 18 18 18 18 21 22 21 22 19 25 23 20 19 20 19 17 15 14 14 16
17 17 17 17 17 17 17 14 15 15 14 16 16 16 17 16 17 17 16 16 16 15 15 17 19 17 17 18 19 20 18 22 22 22 23 20 19 19 17 17 17 15 14 14 15
17 17 16 18 17 16 15 15 15 14 14 16 15 15 15 16 15 15 15 15 15 16 15 16 19 18 18 16 15 19 19 18 21 20 23 22 19 17 15 15 15 14 13 13 13
17 17 16 18 16 11 14 13 14 14 13 15 15 14 14 14 14 15 14 14 13 14 15 14 17 16 15 15 14 16 15 16 22 20 19 22 18 15 14 13 14 14 13 12 12
16 16 16 18 16 14 14 14 13 14 13 14 14 13 12 13 14 14 14 14 13 14 14 14 14 16 16 17 16 15 15 15 15 17 19 23 17 14 13 12 12 13 12 12 11
15 16 15 14 10 13 14 13 14 12 12 12 12 13 13 13 13 13 14 14 13 13 11 13 13 15 18 15 14 15 15 15 16 19 18 18 15 13 12 11 10 11 12 12 12
14 11 11 13 12 11 12 12 13 13 12 12 13 12 13 13 14 13 14 14 14 11 12 14 13 13 13 13 13 14 14 14 16 16 18 17 14 11 11 11 10 10 10 11 11
13 12 11 9 8 12 10 11 12 12 13 12 12 12 13 13 13 13 14 13 14 13 12 11 12 13 12 13 13 13 14 14 14 14 15 16 12 11 11 11 11 11 11 10 10
13 13 13 8 10 12 11 11 12 12 12 12 12 13 13 12 11 11 10 10 12 13 12 12 12 12 13 11 13 13 14 13 12 12 15 16 12 11 11 10 10 10 10 10 9
Height
1513 1511 1509 1507 1506 1504 1502 1500 1499 1498 1497 1496 1495 1495 1495 1494 1494 1494 1494 1496 1498 1500 1504 1507 1511 1513 1516 1519 1519 1519 1518 1520 1515 1515 1519 1521 1523 1526 1527 1530 1532 1535 1535 1540 1544
1511 1509 1506 1505 1503 1501 1500 1498 1496 1495 1495 1493 1492 1492 1492 1492 1491 1490 1492 1492 1495 1498 1502 1505 1509 1513 1517 1519 1521 1518 1517 1517 1513 1514 1517 1521 1522 1526 1529 1530 1534 1535 1537 1541 1547
1509 1506 1504 1502 1500 1498 1497 1496 1494 1493 1492 1491 1490 1490 1490 1490 1490 1489 1489 1490 1493 1498 1503 1507 1510 1513 1516 1519 1520 1518 1516 1514 1515 1516 1519 1521 1524 1526 1528 1529 1530 1532 1536 1541 1547
1506 1503 1501 1499 1497 1495 1494 1493 1492 1491 1490 1489 1489 1488 1488 1489 1490 1488 1487 1489 1493 1497 1503 1507 1510 1513 1514 1516 1519 1518 1516 1515 1516 1518 1519 1520 1525 1526 1529 1529 1528 1532 1536 1540 1547
1504 1501 1499 1497 1494 1492 1490 1490 1489 1489 1488 1487 1488 1488 1488 1488 1488 1487 1487 1490 1493 1497 1502 1506 1510 1513 1512 1515 1517 1518 1515 1515 1517 1519 1520 1521 1522 1526 1529 1529 1531 1534 1540 1544 1548
1503 1500 1497 1495 1492 1490 1488 1486 1487 1487 1487 1486 1486 1487 1488 1489 1487 1488 1489 1492 1495 1498 1503 1507 1510 1512 1514 1514 1515 1514 1514 1514 1516 1518 1520 1521 1521 1526 1528 1529 1534 1537 1541 1546 1549
1501 1498 1495 1493 1490 1487 1486 1484 1484 1485 1485 1485 1485 1486 1487 1489 1488 1489 1491 1494 1498 1501 1504 1508 1511 1513 1513 1513 1514 1513 1513 1513 1515 1517 1518 1521 1525 1524 1526 1529 1534 1539 1544 1548 1552
1499 1496 1494 1491 1488 1485 1484 1482 1482 1482 1484 1484 1484 1485 1486 1487 1488 1491 1493 1496 1499 1502 1506 1509 1511 1513 1513 1513 1513 1511 1511 1512 1517 1517 1518 1521 1520 1521 1525 1529 1534 1538 1543 1547 1551
1496 1494 1492 1489 1486 1483 1482 1482 1480 1481 1482 1484 1485 1486 1487 1488 1490 1491 1494 1496 1498 1503 1506 1509 1512 1514 1513 1510 1511 1512 1512 1513 1518 1516 1517 1519 1518 1523 1526 1529 1533 1537 1541 1546 1550
1493 1491 1489 1487 1485 1483 1481 1481 1482 1482 1483 1484 1485 1488 1487 1487 1488 1490 1494 1497 1498 1502 1508 1511 1513 1511 1512 1509 1515 1513 1514 1514 1515 1516 1516 1515 1518 1522 1527 1529 1533 1537 1541 1545 1549
1490 1488 1487 1485 1484 1483 1482 1482 1486 1486 1482 1482 1483 1483 1484 1486 1487 1490 1494 1497 1500 1503 1503 1509 1509 1510 1509 1507 1507 1508 1510 1513 1512 1512 1516 1513 1514 1518 1524 1527 1531 1536 1538 1543 1547
1488 1486 1485 1484 1484 1484 1484 1484 1484 1486 1482 1479 1480 1482 1483 1484 1487 1490 1494 1497 1500 1500 1504 1510 1508 1507 1507 1510 1509 1509 1511 1515 1514 1513 1515 1516 1516 1517 1520 1523 1527 1531 1537 1542 1546
1485 1484 1483 1483 1484 1485 1484 1485 1484 1483 1483 1480 1479 1480 1482 1484 1485 1489 1493 1494 1497 1501 1502 1503 1502 1505 1506 1510 1510 1512 1512 1516 1515 1515 1515 1515 1519 1518 1522 1525 1527 1531 1536 1541 1544
1484 1483 1483 1483 1486 1485 1485 1484 1484 1483 1483 1481 1480 1480 1482 1482 1486 1488 1491 1493 1496 1497 1501 1500 1500 1502 1506 1507 1507 1514 1511 1512 1515 1517 1519 1517 1521 1524 1523 1526 1531 1535 1538 1539 1542
1484 1483 1483 1483 1484 1485 1487 1484 1483 1484 1491 1482 1480 1480 1481 1484 1485 1489 1490 1491 1492 1495 1499 1500 1499 1502 1505 1504 1506 1510 1509 1512 1514 1516 1519 1520 1518 1532 1525 1531 1534 1535 1537 1540 1541
1487 1486 1485 1484 1485 1486 1484 1482 1483 1486 1496 1483 1481 1480 1480 1483 1486 1489 1489 1490 1492 1494 1496 1499 1500 1502 1501 1503 1504 1508 1512 1516 1518 1517 1524 1520 1518 1536 1537 1541 1534 1534 1534 1536 1537
1490 1489 1486 1485 1485 1484 1482 1482 1485 1492 1489 1491 1487 1484 1484 1490 1491 1493 1496 1498 1498 1500 1500 1500 1504 1506 1506 1503 1507 1507 1510 1524 1529 1528 1523 1526 1521 1546 1541 1541 1540 1536 1533 1532 1532
1491 1490 1487 1486 1484 1482 1481 1482 1494 1497 1494 1491 1489 1487 1490 1493 1499 1500 1501 1503 1504 1502 1503 1504 1515 1508 1510 1509 1504 1505 1503 1510 1529 1530 1520 1527 1533 1549 1544 1543 1540 1536 1532 1528 1525
1492 1490 1487 1485 1483 1481 1483 1490 1504 1500 1498 1495 1490 1489 1494 1495 1496 1502 1510 1511 1512 1510 1504 1508 1515 1513 1514 1513 1513 1510 1509 1514 1517 1530 1514 1523 1537 1539 1540 1541 1539 1537 1533 1526 1519
1492 1490 1488 1486 1484 1482 1483 1500 1500 1501 1499 1496 1495 1495 1497 1501 1500 1503 1511 1515 1514 1513 1512 1512 1515 1517 1515 1514 1513 1509 1518 1514 1512 1528 1524 1535 1538 1542 1544 1542 1540 1537 1532 1528 1520
1492 1490 1490 1487 1486 1485 1493 1501 1501 1501 1499 1496 1499 1500 1504 1503 1506 1511 1518 1518 1517 1514 1513 1513 1509 1519 1516 1526 1529 1518 1516 1520 1514 1520 1514 1528 1541 1547 1551 1550 1547 1544 1540 1534 1528
1492 1492 1491 1488 1490 1498 1501 1504 1504 1503 1501 1501 1501 1504 1507 1509 1512 1514 1520 1521 1519 1517 1517 1521 1518 1527 1531 1532 1532 1529 1529 1527 1509 1526 1526 1512 1546 1551 1552 1552 1550 1548 1545 1540 1534
1494 1494 1492 1490 1496 1501 1505 1506 1507 1505 1506 1505 1507 1508 1511 1512 1515 1517 1519 1523 1520 1519 1522 1522 1528 1528 1532 1529 1530 1530 1531 1531 1530 1524 1523 1513 1544 1553 1553 1554 1553 1551 1549 1545 1541
1496 1497 1497 1496 1503 1504 1505 1508 1508 1510 1511 1511 1511 1511 1511 1515 1516 1520 1522 1524 1523 1523 1524 1524 1532 1529 1517 1528 1533 1533 1533 1533 1528 1520 1527 1527 1544 1550 1555 1556 1556 1554 1552 1550 1548
1498 1504 1505 1506 1508 1509 1509 1511 1510 1512 1513 1513 1512 1513 1512 1516 1517 1521 1523 1523 1524 1525 1526 1526 1533 1535 1538 1537 1536 1536 1536 1535 1531 1532 1526 1532 1546 1554 1557 1558 1559 1558 1556 1554 1552
1501 1505 1507 1511 1512 1510 1512 1514 1513 1515 1515 1515 1516 1516 1515 1517 1518 1522 1522 1525 1526 1527 1529 1533 1537 1538 1540 1540 1538 1537 1536 1535 1535 1536 1535 1536 1551 1556 1558 1559 1560 1559 1558 1556 1555
1503 1505 1505 1512 1514 1512 1514 1515 1515 1516 1519 1518 1519 1518 1519 1522 1523 1525 1526 1528 1528 1528 1530 1532 1536 1537 1539 1544 1540 1539 1535 1536 1540 1541 1537 1536 1550 1556 1558 1560 1560 1561 1560 1560 1558
Wind_Speed
17 17 16 15 14 14 12 13 13 12 10 10 8 8 8 8 8 10 12 8 14 22 20 21 17 15 13 6 2 2 1 2 1 2 6 8 5 4 4 5 3 6 12 21 30
18 17 17 17 16 14 13 12 12 12 11 10 9 7 7 7 9 9 6 11 19 26 27 24 20 17 6 5 2 2 0 1 3 4 9 9 11 5 2 8 5 14 19 30 31
19 19 18 17 17 15 13 11 10 10 10 10 8 5 4 5 3 2 3 14 22 27 25 23 18 10 6 6 5 4 1 2 3 9 15 9 12 9 7 6 8 21 31 33 31
18 17 17 16 15 14 13 11 9 9 8 8 7 4 3 1 3 1 3 15 24 27 25 21 18 9 5 7 8 3 6 2 2 10 8 8 13 10 8 3 5 24 34 35 32
18 17 16 15 15 15 12 10 9 8 8 6 4 4 2 3 2 2 10 19 23 24 26 20 19 7 5 5 6 7 3 2 9 14 11 11 6 7 7 6 16 28 29 30 29
18 17 16 16 15 16 13 8 8 7 6 6 2 3 2 3 7 7 11 21 22 25 26 18 14 8 5 5 5 4 9 7 10 15 11 10 6 8 9 13 19 27 29 28 26
19 17 16 16 17 16 13 7 5 6 5 4 2 1 4 3 10 11 12 17 19 20 23 18 10 4 6 5 2 2 4 6 7 12 6 8 4 4 12 18 21 25 25 25 23
20 19 16 16 17 15 10 6 3 4 4 3 2 2 2 7 12 13 14 15 14 17 15 17 8 6 1 2 1 3 2 3 3 13 4 10 2 9 16 20 22 25 26 26 24
20 18 16 16 16 11 7 7 2 2 4 3 4 2 3 7 9 14 14 11 12 16 7 15 6 3 2 3 5 1 4 3 4 11 3 10 2 10 18 19 23 24 26 26 26
19 18 15 13 12 7 5 7 6 5 5 2 1 2 4 4 7 16 16 10 10 20 9 8 4 5 2 5 9 7 5 4 4 10 5 10 4 7 15 17 21 24 24 25 26
18 16 12 10 7 7 5 3 3 1 3 4 1 2 2 3 7 13 18 11 17 12 6 9 7 11 11 6 3 7 6 5 2 4 6 6 6 7 13 16 19 24 26 25 25
18 14 9 5 7 10 11 5 6 3 5 3 7 9 7 5 7 12 22 7 12 11 10 7 10 10 7 5 7 4 5 4 2 3 6 3 3 4 11 13 18 23 23 25 24
15 11 6 1 6 5 8 10 9 4 2 3 3 4 3 9 6 13 22 9 14 9 9 12 9 10 7 8 8 5 5 4 3 1 1 1 0 4 1 5 11 16 20 22 24
13 8 3 5 5 3 3 9 8 4 1 2 2 2 5 5 4 16 18 10 5 12 9 9 7 12 9 9 7 9 7 4 3 2 3 3 3 7 6 4 3 9 17 20 24
12 8 4 7 4 2 4 10 5 2 3 6 2 3 6 2 12 4 7 5 9 8 5 5 11 11 9 7 7 3 5 6 3 4 2 4 2 6 5 7 7 8 11 18 20
15 12 8 4 2 4 8 5 3 3 4 2 4 2 5 5 5 2 4 5 5 6 1 4 3 2 2 3 10 10 6 4 3 2 6 3 2 5 6 9 11 10 6 14 20
12 12 10 8 4 7 7 2 2 4 4 7 4 5 8 7 7 7 5 8 2 9 9 4 4 2 5 6 5 7 8 5 6 5 5 3 5 5 7 11 11 14 13 11 13
8 8 10 9 8 6 1 2 7 3 4 3 4 6 5 4 6 7 3 5 10 4 3 5 6 5 10 3 2 11 10 5 11 9 7 0 8 5 7 11 14 15 17 15 14
3 6 16 12 8 3 2 6 3 3 5 7 3 4 3 4 4 4 7 4 7 7 0 4 4 1 7 7 3 5 6 2 5 1 9 5 6 4 11 15 19 21 21 22 21
5 3 20 14 9 4 5 5 2 4 4 2 3 4 4 4 3 4 4 5 4 9 3 2 5 6 4 1 10 3 3 5 2 9 10 4 4 5 12 16 17 23 27 26 25
4 2 18 10 9 10 4 4 3 7 3 6 4 4 6 3 5 4 5 3 6 5 7 2 1 3 1 7 8 2 2 3 1 2 6 7 5 5 9 10 14 21 24 25 28
6 2 15 11 6 3 3 3 4 10 10 7 5 7 5 5 5 5 4 5 11 4 4 4 3 5 4 2 4 7 4 1 5 5 2 0 5 4 9 13 15 19 23 25 30
3 7 13 5 3 4 3 4 6 7 8 6 4 6 5 3 5 5 4 5 12 5 3 1 3 4 2 3 1 3 4 3 1 1 4 6 6 8 12 15 18 18 20 24 28
2 2 9 16 7 3 3 4 3 8 6 6 4 2 3 5 5 5 4 6 6 8 10 5 3 2 2 4 2 1 2 4 2 3 7 2 13 7 11 11 15 18 19 21 23
5 3 3 3 7 7 2 2 3 4 4 10 4 6 3 5 7 4 4 4 8 8 5 3 4 4 6 5 1 1 2 1 1 3 3 14 10 8 9 11 12 13 17 18 22
4 3 6 4 2 2 4 3 3 2 4 4 7 9 4 4 1 6 5 1 1 4 3 2 5 4 3 3 1 1 1 5 3 4 7 14 10 10 10 9 12 14 15 17 18
8 7 4 3 2 0 1 2 2 1 5 4 4 4 9 6 5 7 7 7 4 1 3 2 6 4 4 3 2 4 4 4 6 4 3 10 7 10 9 9 10 10 12 13 15
Wind_Direction
336 334 330 330 329 327 324 321 319 320 322 323 310 295 285 282 275 260 254 224 189 177 170 166 160 158 160 165 176 280 275 54 336 246 142 158 131 51 358 146 138 177 151 162 157
335 332 330 329 326 324 320 316 314 315 319 320 310 296 282 285 281 268 231 192 181 179 177 173 155 158 144 174 207 252 280 8 324 95 143 143 99 87 121 144 76 110 136 152 156
334 331 331 331 327 325 320 313 309 312 317 321 311 295 277 291 288 169 218 187 177 177 178 174 161 144 152 157 187 188 245 221 70 109 138 124 123 148 197 191 186 153 148 155 160
336 334 333 332 329 327 324 313 303 307 310 320 314 296 256 205 150 197 208 175 173 175 178 173 164 154 157 169 190 222 257 231 113 145 139 153 137 156 197 353 161 157 156 157 164
344 340 338 338 335 328 328 315 300 300 303 312 312 297 237 217 160 106 153 164 168 173 180 168 166 152 166 177 166 238 280 232 180 173 161 153 163 163 163 104 137 149 156 162 167
350 346 342 341 339 332 324 314 298 293 291 304 294 297 206 198 140 123 151 163 164 164 171 172 173 179 141 184 201 209 256 277 181 177 175 185 158 158 163 149 151 157 162 170 174
346 344 341 338 337 334 323 311 293 285 275 294 281 204 218 134 147 139 150 166 167 172 170 169 168 173 148 166 235 265 273 115 202 180 177 187 160 218 168 157 159 169 169 176 180
339 340 340 336 337 340 329 322 297 271 272 260 163 161 157 162 159 156 152 169 179 186 188 181 174 175 169 297 159 227 226 182 146 185 209 196 113 159 166 169 174 175 177 179 184
335 337 338 335 338 347 352 335 19 186 173 163 128 83 129 172 172 173 166 169 167 175 145 184 168 184 180 186 160 107 172 102 138 189 157 206 70 149 166 172 176 180 185 186 187
334 335 338 335 344 3 18 81 85 108 137 144 256 126 159 155 175 188 178 155 143 154 121 149 165 187 165 201 177 163 144 105 122 186 229 202 229 132 172 185 187 189 187 188 192
336 334 340 341 20 35 107 77 37 5 234 230 270 302 184 110 154 162 170 150 136 145 147 158 182 191 179 188 135 130 129 109 74 162 204 240 256 206 178 188 194 194 194 193 193
337 336 343 352 100 82 74 66 25 294 309 266 249 259 250 159 129 155 164 147 162 159 138 155 199 186 192 187 153 145 144 118 54 49 223 278 294 335 189 194 192 190 194 197 195
338 342 353 83 132 120 64 30 12 1 262 304 241 240 178 162 153 161 169 160 168 161 177 179 178 165 172 167 174 153 193 163 126 358 157 230 88 355 109 189 188 191 197 199 197
349 356 35 140 136 137 52 358 344 328 319 57 215 182 173 138 103 171 180 161 163 173 173 193 155 167 178 178 191 202 199 182 169 222 162 296 143 52 341 232 238 190 203 204 206
11 24 65 148 138 134 327 331 306 279 120 336 119 140 153 181 128 92 181 196 163 157 192 144 162 171 191 196 179 205 169 193 188 185 224 175 217 10 55 57 345 231 225 218 217
41 42 49 112 169 300 313 324 151 235 74 31 360 6 143 36 46 63 81 87 96 133 143 81 68 66 185 151 189 147 102 82 99 179 201 119 268 39 22 351 346 344 326 232 219
40 29 34 43 347 321 323 158 183 47 335 5 357 22 77 33 60 33 51 47 58 162 170 106 53 56 26 149 144 191 176 151 179 191 186 98 100 49 24 11 358 345 336 310 253
19 24 25 6 343 335 112 122 62 358 3 353 355 75 83 28 50 31 74 75 39 19 106 153 157 20 358 23 147 183 203 201 184 189 160 181 141 81 50 25 17 10 351 338 295
32 28 26 17 11 60 119 59 41 342 330 327 320 97 91 61 99 92 48 49 25 356 118 137 96 31 48 32 314 147 197 22 108 75 185 127 102 182 36 25 23 16 11 7 352
333 351 12 9 12 64 72 93 66 354 316 292 70 17 106 31 92 72 37 19 7 22 302 103 126 22 6 313 48 16 95 171 202 167 177 126 124 64 14 14 16 15 11 14 21
323 21 358 1 11 51 70 64 43 11 27 33 50 68 68 74 62 76 32 56 357 357 43 35 332 57 19 39 19 17 108 58 95 333 183 161 123 22 50 28 28 24 17 20 32
27 56 357 21 43 32 57 15 15 2 23 57 70 61 65 45 66 92 98 10 342 349 43 21 74 64 88 53 347 37 56 359 231 178 63 19 112 47 67 44 35 39 31 30 44
85 39 13 48 82 78 80 74 57 38 31 27 54 43 56 68 102 83 89 21 32 49 42 34 38 127 161 212 161 48 33 46 60 283 181 195 134 90 69 45 34 43 37 35 39
53 51 33 61 62 77 75 29 89 46 58 54 46 100 116 57 50 122 110 47 42 68 57 86 72 337 300 69 46 180 28 29 339 225 151 69 138 95 66 52 34 36 42 42 40
55 69 56 34 43 68 60 40 49 29 48 27 57 43 91 113 104 105 101 94 49 16 49 53 98 93 75 72 3 335 322 349 86 94 300 145 117 98 87 79 59 45 42 39 39
89 132 83 77 14 61 14 45 74 63 11 37 83 56 85 97 56 151 137 112 133 43 62 22 126 137 101 10 343 180 105 138 134 92 92 126 105 120 109 92 73 59 46 36 30
93 101 114 23 53 107 72 132 107 116 47 90 118 84 73 64 63 74 81 86 95 111 105 84 143 176 152 6 185 227 171 134 110 79 149 169 112 143 99 75 56 57 52 35 21